160  
ASUS42 KFFC 190610  
RWRGA  
WEATHER ROUNDUP FOR GEORGIA  
NATIONAL WEATHER SERVICE PEACHTREE CITY GA  
200 AM EDT TUE MAR 19 2019  
 
NOTE: "FAIR" INDICATES FEW OR NO CLOUDS BELOW 12,000 FEET WITH NO  
SIGNIFICANT WEATHER AND/OR S TO VISIBILITY
.  
 
* = USE WITH CAUTION. THE STATIONS MARKED WITH AN ASTERISK MAY NOT  
REPORT WEATHER SUCH AS PRECIPITATION, FOG, OR THUNDER AND ARE NOT  
QUALITY CONTROLLED BY NWS.  
 
THE REMARK "TC" DENOTES TEMPERATURE READING IN DEGREES CELSIUS.  
 
GAZ001>058-190700-  
NORTH GEORGIA  
 
CITY SKY/WX TMP DP RH WIND PRES REMARKS
 
ATLANTA CLOUDY 46 16 30 N9 30.31R  
6HR MIN TEMP: 46; 6HR MAX TEMP: 53;  
 
ATHENS FAIR 41 19 41 NE6 30.31S  
6HR MIN TEMP: 41; 6HR MAX TEMP: 53;  
 
CHAMBLEE FAIR 39 19 44 N3 30.31S  
6HR MIN TEMP: 38; 6HR MAX TEMP: 50;  
 
PEACHTREE CITY FAIR 45 19 35 CALM 30.32R  
6HR MIN TEMP: 44; 6HR MAX TEMP: 55;  
 
ROME FAIR 41 21 44 N3 30.34S  
6HR MIN TEMP: 41; 6HR MAX TEMP: 52;  
 
WEST ATLANTA FAIR 43 19 38 CALM 30.32R  
6HR MIN TEMP: 42; 6HR MAX TEMP: 51;  
 
GAINESVILLE FAIR 41 17 38 NE3 30.32R  
6HR MIN TEMP: 41; 6HR MAX TEMP: 50;  
 
CARTERSVILLE FAIR 35 24 64 CALM 30.34S  
6HR MIN TEMP: 34; 6HR MAX TEMP: 50;  
 
 
CITY SKY/WX TMP DP RH WIND PRES REMARKS
 
DALTON* FAIR 39 21 48 NW9 30.35F WCI 33  
LAWRENCEVILLE* FAIR 36 26 67 CALM 30.31R  
MARIETTA FAIR 43 16 33 NW6 30.31R  
KENNESAW* FAIR 41 19 41 NW3 30.33R  
CANTON* FAIR 41 9 26 CALM 30.32S  
BLAIRSVILLE* FAIR 30 23 75 S3 30.31F  

 
 
GAZ059>098-102>109-190700-  
CENTRAL GEORGIA  
 
CITY SKY/WX TMP DP RH WIND PRES REMARKS
 
AUGUSTA-BUSH FAIR 49 21 33 NE8 30.30R  
6HR MIN TEMP: 47; 6HR MAX TEMP: 59;  
 
AUGUSTA-DANIEL FAIR 50 15 24 N9 30.30R  
6HR MIN TEMP: 50; 6HR MAX TEMP: 62;  
 
COLUMBUS FAIR 50 17 27 NE7 30.29F  
6HR MIN TEMP: 50; 6HR MAX TEMP: 60;  
 
MACON FAIR 48 18 30 N9 30.29R  
6HR MIN TEMP: 48; 6HR MAX TEMP: 59;  
 
ROBINS AFB CLEAR 49 20 32 N7 30.27S  
 
 
CITY SKY/WX TMP DP RH WIND PRES REMARKS
 
LAGRANGE* FAIR 46 23 39 CALM 30.30F  
SYLVANIA* FAIR 53 29 40 NE9 30.26R  
MILLEDGEVILLE* FAIR 50 21 32 NE3 30.29F  

 
 
GAZ099>101-110>166-190700-  
SOUTH GEORGIA  
 
CITY SKY/WX TMP DP RH WIND PRES REMARKS
 
SAVANNAH FAIR 55 31 39 NE12 30.22R  
6HR MIN TEMP: 51; 6HR MAX TEMP: 63;  
 
VALDOSTA FAIR 55 31 39 N13 30.22F  
6HR MIN TEMP: 49; 6HR MAX TEMP: 56;  
 
ALMA FAIR 54 27 35 N8 30.22S  
6HR MIN TEMP: 52; 6HR MAX TEMP: 58;  
 
ST SIMONS FAIR 56 40 55 N6 30.19R  
6HR MIN TEMP: 53; 6HR MAX TEMP: 61;  
 
FT STEWART FAIR 53 32 44 N6 30.21R  
ALBANY FAIR 54 22 28 N9 30.28R  
HUNTER AFB FAIR 55 34 45 NE10 30.19R  
MOODY AFB FAIR 53 33 45 N10 30.21S  
BRUNSWICK FAIR 52 43 71 CALM 30.21R  
 
 
CITY SKY/WX TMP DP RH WIND PRES REMARKS
 
BAINBRIDGE* N/A 55 25 30 MISG 30.25F  
MOULTRIE* FAIR 54 28 37 N10 30.24F  
VIDALIA* FAIR 54 21 28 N8 30.25R  
WAYCROSS* FAIR 55 20 25 N7 30.23R  
DOUGLAS* FAIR 54 24 30 N9 30.25S  

 
 
 
CLICK HERE TO GO TO PREVIOUS BULLETINS.

The Nexlab GA Page Main Text Page